Wind_Speed
4 5 5 4 5 5 5 5 5 5 5 5 5 5 5 5 5 5 5 5 6 7 6 6 6 4 5 6 5 6 8 11 12 11 11 12 13 15 16 16 16 17 18 19 20 21 22 22 23 24 28 31 34 35 34 33 33 33 33 31 30 29 28 27 25 25 27 26 24 25 25 24 24 23
2 3 3 3 3 4 4 4 4 4 4 5 5 5 5 5 5 5 5 6 9 11 10 10 9 8 7 6 6 8 9 11 13 13 14 15 15 16 18 18 18 19 21 20 20 20 22 24 24 24 25 27 31 33 35 35 34 34 35 34 33 32 31 30 28 26 27 27 27 27 26 25 25 25
2 2 1 1 2 3 3 2 3 4 4 5 5 6 6 6 6 7 7 6 8 11 12 12 12 12 12 11 11 12 12 14 16 15 16 16 16 18 19 20 21 22 22 21 21 21 22 23 24 25 25 25 26 30 33 36 36 35 35 35 35 35 34 32 31 29 28 29 30 29 28 27 27 27
4 4 3 2 1 1 2 2 3 4 4 4 6 7 7 7 7 8 9 8 9 12 13 14 15 14 15 15 14 14 14 15 15 15 15 16 16 18 18 19 21 22 20 19 19 21 22 22 22 24 25 25 25 26 29 33 36 37 37 37 37 37 37 35 34 32 31 30 31 31 30 29 28 28
5 4 3 3 3 2 1 2 4 4 4 6 7 7 7 8 8 8 10 10 10 12 13 13 15 14 14 15 15 15 15 15 15 15 15 16 17 17 18 19 20 21 21 21 20 20 20 21 22 23 24 25 25 26 27 30 33 37 39 39 38 38 39 39 37 35 34 33 32 33 32 31 30 29
7 5 4 4 4 3 3 3 4 4 5 7 7 7 8 9 9 9 11 12 12 13 13 13 14 14 14 15 15 15 16 16 16 16 16 16 17 17 17 18 19 19 19 19 19 18 18 19 21 21 22 23 24 26 27 28 31 34 38 39 40 40 41 42 41 39 37 36 35 35 34 34 33 31
7 6 5 4 4 4 3 4 4 5 5 6 7 8 9 10 11 11 11 12 13 14 14 14 14 14 14 14 15 15 16 16 16 17 17 17 17 17 17 17 17 18 18 19 19 19 19 20 21 21 22 23 24 25 25 27 29 32 35 38 40 42 42 43 43 42 41 40 39 37 37 37 35 34
7 6 5 5 4 4 4 5 5 6 6 6 8 9 9 10 11 11 11 12 13 14 15 14 14 15 15 15 15 15 16 17 17 18 18 17 17 17 16 16 16 16 17 18 18 19 19 20 21 22 23 24 25 25 26 26 27 29 32 35 37 40 42 43 44 45 44 44 43 41 39 39 38 36
7 6 6 5 4 4 5 6 6 7 7 8 9 9 9 10 11 11 11 12 13 15 16 16 16 16 16 16 16 15 16 17 17 17 17 17 17 17 17 17 16 17 18 19 20 21 22 23 24 25 27 27 27 27 28 28 28 28 30 32 34 37 39 41 43 45 45 46 45 44 43 42 41 39
8 7 7 6 5 5 6 6 7 7 8 9 9 10 10 11 12 12 13 13 14 15 17 17 17 16 16 17 17 16 16 17 16 16 16 16 16 17 17 17 17 18 19 20 21 22 22 23 24 24 25 26 27 28 29 29 29 30 30 31 33 34 36 38 40 43 45 47 48 48 47 44 43 43
8 7 7 6 6 6 7 6 6 6 8 9 9 10 11 11 12 13 14 14 15 16 16 17 16 16 16 16 17 16 15 16 17 17 16 16 16 15 16 17 16 16 17 18 20 20 21 23 24 24 24 24 25 26 27 28 30 30 31 31 32 33 34 35 37 40 44 47 49 49 49 47 46 46
7 7 7 7 7 7 7 8 7 8 10 10 11 11 11 12 13 14 14 15 15 16 16 16 16 16 16 15 16 16 15 15 15 15 15 15 14 14 14 15 15 15 16 17 19 20 22 25 27 27 28 28 26 26 27 28 30 31 31 31 32 32 33 34 35 37 41 45 47 49 50 49 48 47
7 7 7 8 8 9 11 13 14 15 13 12 13 12 12 12 13 14 14 15 16 16 16 16 16 16 15 15 14 14 14 14 14 14 14 15 15 16 17 18 17 18 18 19 19 19 20 21 23 25 27 28 27 26 26 26 27 29 31 32 32 31 32 32 33 35 37 41 44 47 49 49 49 48
7 7 8 8 10 12 15 16 16 15 13 13 14 14 14 13 14 14 14 15 16 16 16 16 16 16 16 16 15 16 15 15 15 15 16 17 17 17 18 18 17 17 17 19 20 20 19 20 21 22 23 24 24 24 24 23 24 25 27 29 31 31 32 31 32 33 35 37 40 44 47 49 50 50
7 7 8 8 10 12 13 14 14 14 15 16 16 16 16 16 16 16 16 16 16 16 17 17 17 16 17 17 17 17 17 16 16 16 16 16 16 16 15 14 14 13 14 16 18 18 18 18 20 21 20 21 21 22 23 24 24 23 23 23 25 28 30 31 31 32 33 35 37 40 43 46 48 51
7 7 8 9 10 11 12 13 14 15 17 17 17 17 17 16 17 18 18 18 17 17 18 18 18 18 18 18 17 16 16 16 16 15 15 15 16 16 16 15 15 14 14 16 18 18 17 17 19 20 19 19 20 20 21 22 22 22 21 21 21 24 26 28 30 31 32 33 35 37 39 42 45 49
7 8 9 10 10 11 12 13 13 13 14 15 15 15 15 16 18 19 19 19 19 19 19 20 20 19 18 18 17 16 16 17 17 17 17 16 17 18 18 18 18 16 15 16 18 19 19 17 19 21 19 19 20 21 21 22 21 21 21 22 23 24 25 25 27 30 31 32 34 35 37 39 42 46
8 9 10 10 11 11 11 12 12 11 11 12 12 13 13 15 18 19 20 20 21 22 23 24 23 22 21 21 20 20 20 19 18 17 16 16 17 18 19 20 21 20 18 18 18 19 19 17 19 22 20 19 21 22 24 25 23 22 23 23 24 26 28 27 26 27 29 31 32 34 35 37 40 43
9 10 10 11 11 11 11 12 13 12 11 12 13 14 15 16 17 17 18 19 20 22 24 26 26 23 22 22 21 19 18 18 18 17 17 18 19 21 23 23 23 22 21 19 19 20 19 18 20 22 20 20 21 22 25 28 27 26 25 25 25 27 27 27 26 25 25 27 30 31 33 34 36 40
10 10 10 10 10 10 11 13 15 14 13 13 14 15 16 16 17 17 17 18 20 22 24 26 27 28 28 27 26 25 24 25 25 23 23 22 20 21 23 22 22 21 19 19 20 22 21 19 20 22 21 21 22 22 22 25 27 28 28 26 26 26 25 24 24 23 23 24 26 28 29 30 33 37
10 11 11 11 11 12 13 15 16 16 15 14 14 17 17 18 18 18 17 18 20 22 24 27 29 31 32 32 33 33 33 34 32 29 26 22 20 21 20 19 20 21 19 16 17 21 22 19 20 23 22 22 23 22 19 20 23 26 25 24 24 24 23 22 22 21 21 22 22 23 24 26 29 33
10 11 12 13 14 14 14 15 16 16 15 14 15 17 18 20 20 19 18 19 20 21 23 24 26 28 29 30 31 31 32 32 31 30 28 23 22 24 22 19 20 22 21 19 17 19 21 19 19 21 20 21 23 22 19 18 21 22 21 20 21 21 21 21 21 21 20 20 21 21 21 22 27 31
10 11 13 15 16 15 15 15 16 17 17 15 15 17 20 22 22 21 21 21 21 21 22 22 23 24 25 25 26 26 26 26 26 27 26 23 25 29 29 25 21 17 17 17 17 19 22 20 19 19 16 14 16 19 19 17 16 16 15 14 15 18 20 21 21 21 20 18 19 19 19 22 26 29
11 12 12 13 11 9 10 12 14 15 16 16 16 17 20 23 23 22 22 22 22 23 23 23 23 23 23 23 23 23 24 24 25 26 26 25 26 29 31 29 25 21 18 16 16 19 20 18 19 20 18 13 13 16 16 12 12 11 10 9 9 14 19 20 20 21 19 17 17 17 18 21 26 30
11 11 10 8 6 4 6 9 12 15 18 20 20 19 21 24 26 26 26 26 26 26 25 24 24 24 24 23 23 23 23 23 24 25 26 26 26 27 28 27 27 28 26 21 20 23 23 20 18 19 20 19 18 18 11 7 8 9 9 7 5 9 13 15 15 17 17 15 14 15 17 21 25 29
11 11 10 8 9 10 12 15 19 21 22 23 23 23 24 26 27 28 28 27 26 25 24 23 23 23 22 22 22 22 23 23 23 23 24 25 26 27 27 26 26 28 26 21 20 23 24 22 20 19 19 19 19 20 12 6 6 6 7 6 5 6 10 11 11 12 14 14 15 16 18 22 25 28
11 11 10 10 14 17 19 22 24 25 24 23 22 22 22 23 23 25 25 25 25 24 23 23 23 22 22 22 22 22 22 22 22 22 22 23 25 26 28 28 28 29 27 24 23 25 25 23 22 21 21 20 18 17 11 5 7 7 7 7 7 7 9 10 10 9 12 16 19 20 23 25 26 28
10 10 12 14 18 20 21 22 23 22 21 20 20 20 21 21 22 22 23 22 22 22 22 22 22 22 21 22 22 22 22 22 22 22 23 23 24 25 26 28 28 28 28 25 25 26 27 25 24 22 22 22 19 16 12 5 7 10 10 10 8 7 7 10 12 11 12 17 23 25 27 28 28 28
11 13 14 17 19 19 19 20 20 20 19 19 20 21 22 23 22 20 20 20 20 21 21 21 21 22 22 22 22 22 22 23 22 23 23 23 24 24 25 26 27 27 27 26 25 25 26 27 26 23 22 23 21 20 19 12 5 11 14 12 10 7 7 9 13 13 15 19 24 26 27 28 28 28
12 13 14 16 17 17 17 17 18 19 19 19 20 20 21 21 20 19 19 20 20 21 22 21 22 22 21 22 22 22 23 23 23 22 22 23 24 24 24 25 26 26 25 24 24 24 25 26 26 25 24 24 22 21 21 15 7 9 13 12 11 9 8 9 12 15 18 20 21 22 23 24 26 26
14 15 16 16 15 16 16 16 17 18 18 18 18 18 18 18 18 18 19 21 22 23 23 24 24 24 23 22 22 22 23 23 23 22 22 23 23 22 22 23 25 25 24 23 23 24 25 26 26 26 26 24 23 22 21 19 15 11 13 13 11 11 11 12 13 16 18 18 16 15 19 23 24 24
16 15 14 14 14 15 16 16 16 16 16 16 16 17 18 18 18 19 20 21 22 23 23 24 24 23 23 23 22 23 23 23 23 23 23 23 23 23 22 21 21 21 22 22 22 23 24 26 27 27 26 25 22 21 20 21 19 13 16 14 10 10 13 15 16 16 16 17 15 14 18 22 23 22
13 12 12 13 14 15 15 16 16 16 16 17 17 17 18 18 19 19 19 20 21 21 21 22 22 22 22 23 23 23 23 23 23 22 22 23 23 23 22 21 20 20 21 21 21 21 22 23 25 27 27 26 23 21 19 19 18 13 18 17 12 12 14 16 19 19 18 18 19 18 19 20 18 17
11 11 13 15 15 16 16 16 16 16 17 18 18 18 19 18 19 20 20 20 21 22 22 23 23 22 23 23 23 22 23 24 24 24 24 24 23 22 22 21 22 23 22 20 20 20 20 20 22 24 26 27 27 26 26 23 17 10 17 18 15 15 14 15 19 22 20 20 22 21 20 20 17 16
10 11 15 16 16 16 16 16 16 17 17 18 18 19 19 19 19 20 20 21 22 22 22 22 22 22 22 22 23 23 24 25 25 25 26 26 25 24 23 22 23 24 23 21 21 20 19 19 19 18 19 22 22 23 28 30 22 11 15 16 15 16 16 15 18 21 21 22 24 24 22 21 20 18
11 13 17 17 16 17 17 16 17 17 17 18 19 19 19 19 19 20 21 22 23 24 23 22 22 22 22 23 24 25 25 25 25 25 25 26 26 26 26 26 25 24 23 22 21 19 19 19 19 16 13 11 11 11 17 25 26 18 15 16 15 17 18 18 20 22 23 24 24 24 22 22 22 21
12 16 17 16 16 17 17 17 17 17 17 18 19 19 20 21 21 22 22 23 24 25 24 24 24 24 25 25 26 27 27 27 27 27 27 27 26 26 26 27 27 26 25 25 23 20 19 19 20 17 11 6 6 7 7 11 18 21 19 17 17 19 20 22 22 22 22 22 22 22 21 21 22 22
14 16 17 17 17 17 17 17 18 17 17 18 19 20 21 22 22 23 24 24 24 24 23 23 25 25 25 26 27 27 26 25 24 24 25 25 25 25 25 25 25 25 26 27 25 22 21 21 21 19 14 7 5 5 4 6 11 16 20 20 20 23 24 22 22 22 22 21 20 20 21 22 23 23
15 16 16 17 17 17 17 18 18 18 19 20 20 22 23 23 24 25 26 24 24 24 25 26 27 27 27 28 28 27 27 26 24 23 23 22 22 23 24 23 22 22 22 23 23 23 23 23 23 22 18 12 7 5 4 7 12 15 19 22 22 25 27 24 22 22 23 23 24 24 24 25 25 24
15 16 16 17 17 17 18 18 18 19 20 21 22 23 23 24 25 26 25 24 25 27 28 28 28 28 27 27 27 27 27 27 27 26 26 25 24 23 23 22 21 20 19 19 20 20 22 25 27 25 22 17 13 9 4 9 12 13 17 21 22 24 27 28 26 26 26 28 31 32 29 27 25 23
15 16 16 16 17 17 18 18 19 19 20 21 23 24 25 26 26 27 27 27 28 28 28 28 28 27 26 26 25 24 24 25 25 25 25 25 24 23 23 22 20 18 17 16 16 18 21 24 26 25 23 18 13 8 4 7 8 9 14 18 19 21 25 29 31 32 33 34 35 31 26 24 23 23
15 16 16 17 17 17 18 19 20 20 21 23 24 24 25 26 26 27 27 27 27 27 27 28 28 26 24 23 22 22 23 24 24 22 22 22 21 20 20 20 19 17 17 15 15 16 19 21 22 22 22 18 14 10 5 5 8 11 14 16 17 20 23 25 28 32 34 36 36 32 27 24 20 16
15 16 17 17 17 17 18 19 20 21 23 24 24 25 26 26 26 26 26 26 26 27 27 26 25 24 23 23 22 22 23 22 20 17 16 18 18 17 16 17 18 18 17 15 14 15 16 18 20 21 21 19 16 11 8 10 12 15 18 20 21 22 23 23 26 29 29 29 30 31 32 30 25 20
15 16 17 17 17 18 19 20 21 22 23 23 24 25 25 25 26 27 27 27 28 28 26 26 25 25 24 24 22 22 22 19 15 13 13 14 16 17 16 15 17 18 17 14 12 12 13 17 19 21 20 18 16 14 14 15 15 16 20 24 27 29 29 28 27 27 24 21 21 24 27 29 29 31
15 16 17 17 17 19 20 21 22 23 23 22 22 24 25 25 26 27 28 28 29 28 27 27 27 26 26 26 24 24 22 18 14 13 12 12 14 16 16 14 13 14 15 13 11 10 12 15 17 18 18 16 16 18 20 21 21 22 24 26 29 31 31 30 30 30 26 21 19 21 23 25 28 31
Wind_Direction
53 43 33 38 46 29 16 14 9 0 348 336 328 321 318 317 318 316 313 316 318 318 319 304 288 285 271 255 252 261 269 273 273 277 281 278 275 273 271 270 267 265 262 257 254 252 250 249 246 241 237 235 232 230 232 237 240 241 240 238 237 236 235 235 234 228 223 219 220 224 226 226 226 228
80 62 41 36 47 27 11 8 2 352 338 327 320 313 307 299 296 301 305 305 308 314 318 311 304 307 300 287 284 282 278 275 276 280 280 274 270 270 270 268 265 265 265 261 258 257 254 252 249 245 241 238 237 234 232 233 236 239 240 240 240 239 237 236 236 235 231 225 223 226 229 228 228 229
146 133 100 58 59 23 352 348 349 337 324 320 318 312 306 295 285 284 286 286 294 303 308 305 305 308 305 300 293 286 280 277 278 278 274 271 270 269 268 269 268 267 267 265 261 259 259 257 251 245 242 240 239 238 235 234 234 235 238 239 240 240 239 237 236 236 236 232 228 229 232 231 230 230
181 175 170 178 157 4 335 329 326 318 309 309 308 302 297 290 282 275 273 272 281 288 290 292 294 296 296 293 288 284 280 277 277 275 271 271 271 270 270 270 270 268 266 264 263 262 260 259 255 248 242 241 241 239 237 235 234 234 235 237 239 240 240 238 236 236 236 235 233 232 233 234 233 232
188 188 198 195 183 201 284 307 310 310 307 305 299 293 290 286 281 277 275 276 281 282 279 280 283 285 287 286 283 282 281 279 278 276 274 274 273 272 272 271 270 267 261 257 261 264 261 258 256 251 246 244 243 241 239 236 235 235 234 234 236 238 239 238 237 237 236 235 235 234 234 235 234 233
191 196 215 207 194 211 237 262 287 302 303 302 299 297 298 293 290 286 283 284 287 287 285 282 281 280 278 276 277 277 277 276 276 276 276 276 275 273 273 272 271 271 264 255 253 256 258 257 255 254 252 249 246 244 241 238 236 236 236 235 235 236 238 238 237 237 237 236 235 235 235 235 235 234
197 198 211 217 218 227 242 261 281 292 292 294 297 298 296 291 288 287 284 283 283 285 287 285 283 283 279 276 275 275 273 273 273 274 273 274 275 275 274 272 271 271 268 261 253 247 250 256 257 257 256 254 251 248 244 241 237 236 236 237 236 236 236 236 237 237 238 236 234 234 235 233 233 234
200 201 212 226 232 241 263 278 286 294 295 296 295 293 290 287 285 283 279 277 278 282 285 284 283 284 283 281 278 277 275 273 272 272 272 271 272 274 274 274 274 275 272 263 250 242 244 252 258 262 262 260 256 252 248 245 242 239 237 236 237 236 235 235 236 237 238 237 234 233 234 233 232 233
204 209 217 228 239 253 271 284 292 298 300 299 295 292 291 289 288 287 283 278 277 278 281 283 283 282 282 281 279 277 277 277 276 274 273 272 272 272 273 273 274 277 277 271 263 260 261 262 262 264 265 264 261 256 252 251 248 245 243 240 239 238 236 235 235 235 237 238 235 233 233 232 231 231
208 212 217 227 239 248 262 277 286 292 295 294 291 290 290 290 289 287 284 281 278 275 276 279 281 280 279 279 279 277 275 276 277 277 276 274 272 271 271 270 269 269 270 269 268 267 267 264 263 262 262 262 260 256 253 252 251 249 247 244 243 242 240 237 236 235 236 237 237 236 233 231 231 231
208 212 221 231 238 247 260 268 277 291 294 291 290 288 287 288 288 286 284 282 279 277 276 276 277 278 278 278 278 278 277 274 274 276 276 275 272 270 268 268 267 265 264 264 263 261 259 259 260 261 261 262 261 259 256 254 251 249 247 246 245 244 243 241 238 236 235 236 238 238 234 230 231 232
214 222 233 240 245 252 250 247 262 285 289 285 286 287 286 286 285 284 285 284 282 280 279 277 277 278 277 276 276 278 277 274 273 273 275 278 279 277 273 272 272 271 270 268 265 261 257 254 253 255 259 262 263 262 260 257 253 249 247 245 244 244 245 245 242 238 236 237 238 238 235 231 230 231
223 234 245 248 248 248 249 257 273 283 282 276 274 276 279 281 281 280 280 281 281 281 281 280 280 280 278 277 277 278 276 276 279 282 282 282 283 283 280 276 273 272 271 269 267 264 261 255 251 249 252 256 260 261 258 254 252 250 248 246 244 243 243 244 244 242 239 237 237 238 237 232 230 231
227 241 251 256 256 260 268 277 285 288 284 278 274 272 271 271 273 276 276 276 278 279 280 280 281 281 280 280 281 281 280 280 281 282 281 280 281 282 280 277 273 268 265 266 265 263 261 259 257 253 250 252 255 253 251 251 251 251 250 248 247 245 244 242 243 244 242 240 238 238 237 235 232 232
239 250 257 264 269 272 278 284 291 294 290 285 283 281 277 272 269 269 269 270 272 275 277 277 278 279 278 279 281 282 283 282 279 278 276 276 277 278 278 279 278 274 271 272 271 267 262 258 259 259 257 256 252 243 240 248 255 255 252 251 251 250 248 245 244 243 242 241 239 238 238 237 235 233
250 261 266 271 273 274 274 277 283 287 285 284 284 284 283 279 273 268 265 264 265 268 272 275 275 274 277 280 281 282 286 288 287 285 281 278 279 278 277 278 278 278 283 283 279 274 269 264 262 261 259 259 258 250 244 245 248 248 248 251 255 256 253 250 247 245 243 241 240 238 238 239 237 234
256 265 272 275 274 274 275 277 279 278 280 285 288 287 282 277 274 271 266 263 261 261 264 269 271 272 275 279 279 282 293 300 297 289 284 282 280 275 273 274 275 278 284 286 282 277 271 267 266 263 259 258 259 260 258 253 246 243 243 247 253 257 258 256 251 246 244 242 240 238 238 238 238 235
258 263 269 272 274 277 278 279 278 277 283 288 290 289 282 276 277 276 270 266 263 259 257 259 264 268 271 274 276 280 287 294 295 292 291 294 292 287 283 280 278 277 278 281 284 279 272 267 266 264 261 259 256 256 259 256 250 247 243 242 247 254 259 260 254 247 244 243 241 239 237 237 238 237
258 262 265 267 272 277 281 282 277 274 279 286 288 288 283 280 281 277 272 268 263 260 258 258 261 266 269 270 273 276 278 281 286 293 297 298 299 295 290 284 277 273 268 266 268 270 269 266 266 265 262 260 258 255 255 252 246 244 242 240 245 253 258 258 252 247 247 244 241 239 236 236 237 237
261 263 263 264 270 277 283 284 280 276 279 283 287 287 285 284 282 278 275 272 266 263 263 262 264 267 269 269 269 271 272 274 281 290 293 292 292 288 282 277 274 272 266 256 253 260 265 263 263 266 265 262 260 257 254 247 238 235 236 236 242 251 258 256 249 245 246 245 242 239 236 235 236 235
264 263 261 262 271 280 283 282 281 282 283 284 286 287 287 287 284 282 282 279 275 272 271 270 270 271 273 275 274 274 273 273 278 283 282 280 281 278 274 271 272 271 269 259 252 257 262 259 260 265 266 263 260 256 251 240 227 225 229 232 239 248 255 256 249 243 243 243 241 237 233 233 233 231
269 269 268 268 270 275 278 277 279 282 283 284 286 287 289 289 287 287 289 287 284 282 280 279 278 277 278 278 277 277 276 274 274 273 269 267 268 267 267 269 272 271 268 264 261 263 264 261 258 261 264 263 257 252 249 239 223 219 223 230 235 242 249 253 250 245 242 241 240 235 230 228 226 222
277 278 280 282 280 275 270 268 270 275 279 283 285 287 290 289 287 288 289 288 289 289 287 285 284 283 282 280 277 275 274 272 269 265 263 262 258 258 260 263 268 270 266 260 257 260 263 262 259 258 261 264 257 248 241 229 214 211 218 228 239 246 251 254 252 247 241 236 235 232 226 223 217 211
285 283 287 290 286 269 255 259 270 280 286 290 289 288 288 286 285 289 289 288 290 291 289 286 284 282 282 280 277 273 270 268 264 260 258 256 254 255 257 257 258 260 262 262 266 272 273 270 265 261 258 257 263 260 244 209 188 193 199 210 239 255 258 255 249 243 236 229 228 226 221 217 212 205
287 288 292 296 297 288 280 290 299 300 299 298 295 289 284 281 282 286 288 286 286 286 283 281 279 278 276 275 273 270 268 265 261 258 254 250 249 252 255 256 256 259 260 262 270 281 284 279 276 275 267 258 258 260 247 174 164 200 209 206 229 256 256 249 239 234 228 220 218 217 211 209 207 205
289 291 290 289 290 293 297 300 303 302 300 298 294 289 285 283 283 284 285 284 282 279 277 276 274 272 271 271 269 266 265 263 261 260 256 251 248 249 251 253 256 260 263 262 264 273 279 277 277 281 280 273 263 256 242 170 153 207 218 205 207 230 237 233 224 220 213 204 203 202 198 197 197 198
294 292 290 289 289 292 295 298 302 305 303 300 296 292 290 290 288 285 283 280 278 275 272 271 270 268 266 266 266 264 263 263 261 260 258 256 254 253 252 252 253 257 262 263 263 269 276 277 275 275 279 283 279 271 260 182 152 175 184 178 187 204 211 211 207 201 194 189 188 185 183 184 185 186
293 293 293 295 297 300 303 305 308 310 307 304 301 298 297 297 292 286 282 278 275 271 269 267 266 266 264 263 264 264 264 265 265 264 263 260 258 256 255 255 255 256 258 258 257 261 266 270 273 277 282 282 278 277 280 259 175 178 177 165 170 186 189 190 195 192 183 180 178 175 173 173 176 179
295 297 296 299 303 306 308 310 311 309 307 306 303 300 300 296 289 282 279 277 272 268 267 265 265 266 266 265 265 267 268 268 269 269 267 263 259 258 257 257 257 256 256 256 254 254 256 259 264 270 277 279 275 270 273 274 216 187 186 169 158 167 170 173 182 183 176 172 171 170 170 170 172 175
314 311 307 308 309 308 308 309 308 306 304 304 301 299 298 291 282 276 276 276 273 269 267 266 265 266 267 267 267 268 267 267 265 264 264 262 259 257 257 258 257 256 255 255 253 252 252 253 255 257 260 267 273 269 268 275 261 202 190 172 155 157 161 162 166 170 169 166 165 167 168 168 170 174
323 316 315 318 316 313 312 311 310 308 306 304 302 301 299 293 286 282 281 280 277 274 272 270 269 269 270 271 271 269 266 264 262 260 259 258 258 257 256 256 257 257 256 255 254 252 251 249 249 250 250 254 263 266 265 271 267 225 188 177 171 164 162 160 156 160 164 161 158 161 165 166 167 169
322 320 321 322 321 318 316 314 313 311 308 308 307 304 302 299 295 291 287 284 281 279 278 278 277 276 274 272 271 270 268 266 264 261 259 258 256 255 254 254 256 256 256 257 255 253 253 250 247 247 247 247 253 260 263 269 266 225 179 175 178 162 158 160 156 155 159 157 152 154 160 163 164 164
330 328 327 323 321 320 316 312 312 311 310 310 308 305 303 301 296 293 290 287 285 285 285 285 284 283 280 276 274 273 270 268 266 263 260 258 256 254 251 250 252 253 254 257 257 254 254 253 248 247 247 247 251 255 258 270 273 230 180 169 166 160 160 161 159 157 157 155 151 148 153 158 159 161
333 328 327 325 323 320 318 315 312 311 311 310 307 305 304 300 296 293 290 287 287 287 287 286 284 283 281 278 275 273 269 268 267 264 261 260 256 252 248 246 248 249 250 253 256 254 255 257 252 248 247 248 252 253 252 261 272 233 180 169 164 162 163 162 160 160 159 157 152 147 149 155 156 158
316 322 329 327 324 321 317 314 311 309 310 309 306 305 303 299 296 294 290 289 290 290 289 286 283 281 278 275 273 270 267 266 265 263 261 260 256 252 248 246 245 245 245 248 251 250 252 257 255 248 242 243 247 248 247 251 255 219 169 166 167 165 164 162 161 159 157 157 154 148 147 153 156 157
306 326 333 328 324 320 315 310 309 309 308 307 305 304 302 299 297 295 293 293 293 292 289 285 281 279 277 274 272 271 267 265 263 260 258 255 252 250 247 245 245 245 243 244 246 246 247 252 254 250 240 234 239 242 241 245 244 224 183 167 164 164 163 159 157 156 156 155 155 151 148 151 156 156
325 335 333 325 320 317 312 310 310 309 307 307 306 304 302 300 298 296 295 294 294 292 288 283 280 279 277 275 273 271 268 263 260 257 255 252 249 247 244 243 244 243 241 242 243 243 243 248 252 253 247 231 235 239 224 219 221 217 205 186 166 161 162 158 153 153 154 155 155 153 148 145 148 154
333 333 328 323 321 318 315 313 312 310 309 309 307 303 301 300 298 298 298 296 293 290 287 285 282 280 278 276 274 271 267 263 258 255 253 249 245 243 242 242 242 240 240 241 242 240 241 244 247 251 252 243 229 233 212 177 182 195 205 202 181 164 161 160 156 152 151 151 151 148 145 143 144 151
332 331 327 325 322 320 318 317 314 312 311 310 307 304 303 301 301 301 301 298 294 292 290 289 287 283 280 277 274 270 267 264 260 257 254 250 245 241 239 238 238 238 238 238 237 235 235 236 238 243 247 246 247 263 238 179 169 177 193 203 195 174 163 161 157 150 147 147 143 136 134 137 141 150
332 330 328 325 323 322 320 319 316 314 313 310 308 306 304 303 303 302 300 298 296 296 294 292 290 288 284 279 275 271 266 261 258 256 254 252 248 242 237 234 234 235 233 233 233 229 227 230 233 237 241 243 250 262 227 159 154 163 175 188 199 193 179 169 160 150 145 146 143 135 133 134 136 145
332 330 328 327 326 323 321 319 318 317 314 312 310 308 307 305 303 301 300 299 299 298 297 296 294 291 287 284 279 273 268 263 259 255 251 249 246 240 234 230 231 232 230 229 230 228 229 234 235 234 237 235 226 218 182 140 129 133 149 165 183 188 180 174 168 158 153 150 143 133 128 131 132 136
332 331 330 328 326 324 321 320 319 317 315 314 312 310 309 307 306 304 304 304 304 302 301 299 297 293 291 289 285 280 275 270 263 256 250 245 240 235 228 224 225 227 226 227 233 233 233 235 232 225 223 215 194 175 159 141 131 125 128 140 156 164 165 168 166 159 155 154 149 141 136 136 133 131
333 332 329 329 327 324 321 319 318 316 316 314 312 311 311 310 310 310 308 307 307 306 304 301 298 295 294 294 291 288 284 276 266 258 250 240 234 230 225 219 220 224 225 228 236 236 227 221 217 210 202 194 184 172 152 140 137 130 125 125 131 138 145 151 153 151 151 154 155 152 151 151 152 152
333 331 330 329 327 323 322 322 320 317 315 314 312 312 312 312 312 311 309 308 308 306 305 303 302 299 298 298 298 297 293 281 265 256 250 240 232 228 225 221 221 223 223 225 230 227 212 202 198 194 190 188 183 167 146 137 136 132 128 126 126 127 129 133 136 138 141 146 152 155 156 156 157 156
333 332 331 329 326 325 325 324 322 319 317 315 313 313 314 314 313 312 310 310 310 308 306 306 305 304 303 305 305 304 299 286 267 257 252 242 233 228 226 226 222 216 215 217 218 208 195 191 190 188 186 182 173 158 146 140 138 134 129 127 126 125 126 127 126 123 119 122 138 150 153 152 152 151
Height
822 822 822 822 822 823 822 823 823 823 823 823 822 822 822 822 821 819 816 812 810 808 808 808 807 808 809 809 809 810 810 809 809 809 809 808 809 808 808 808 807 807 807 807 808 808 808 809 809 810 811 812 813 814 816 817 818 818 819 821 822 823 825 826 827 828 829 830 831 832 833 834 835 836
822 822 822 822 822 823 823 823 823 823 823 823 822 822 822 822 822 821 820 817 814 812 810 809 809 808 809 809 809 809 809 809 808 808 808 807 807 807 806 806 805 805 805 805 805 806 806 806 806 807 808 808 809 811 812 813 814 815 816 818 819 820 821 823 824 825 827 828 829 829 830 831 832 833
822 822 822 823 823 823 823 823 823 823 823 823 822 822 821 821 821 821 821 819 816 815 813 811 811 810 809 809 809 809 809 808 807 807 807 806 805 805 804 803 803 803 803 803 803 803 803 803 803 804 804 805 806 807 808 809 810 812 813 814 815 817 818 819 821 822 824 825 826 827 827 828 829 830
822 822 822 822 822 823 823 823 823 822 822 822 822 822 821 821 821 821 820 819 816 816 815 813 812 811 810 810 809 808 808 807 806 806 805 804 804 803 802 801 800 800 800 800 800 800 799 800 800 800 801 802 802 803 804 805 806 808 809 810 812 813 814 816 817 819 820 822 823 824 825 825 827 828
821 821 821 822 822 822 822 822 822 822 822 822 821 821 820 820 820 820 819 817 815 815 814 813 812 811 811 809 808 808 806 805 805 804 803 802 801 800 800 798 797 797 796 796 796 796 796 797 797 797 798 798 799 800 800 801 802 803 805 806 808 809 810 812 813 815 816 818 820 821 822 822 823 825
820 821 821 821 821 822 822 822 821 821 821 821 820 820 819 819 819 819 818 817 815 813 813 812 811 811 810 809 807 807 805 804 804 803 802 801 799 798 797 796 795 794 793 793 793 794 794 794 794 795 795 795 796 796 797 797 798 799 800 801 803 804 806 807 809 811 812 814 815 817 818 819 820 821
819 820 820 821 821 821 821 821 821 821 820 820 819 819 819 818 818 818 817 816 815 813 811 811 810 809 808 807 806 805 804 803 802 801 800 799 798 796 795 794 793 791 791 791 791 791 791 791 792 792 792 792 792 793 793 793 794 795 795 797 798 799 801 803 804 806 808 809 810 812 814 815 817 818
818 819 819 820 820 820 820 820 820 820 819 819 819 818 818 817 816 816 816 815 814 812 810 809 808 807 806 805 804 803 802 801 800 799 797 797 795 794 793 792 791 789 788 788 788 788 789 789 789 789 789 789 789 789 790 790 791 791 792 792 793 794 795 797 799 801 803 804 806 808 810 811 813 815
817 817 818 818 819 819 819 820 819 819 819 819 818 817 817 816 815 815 814 814 813 811 809 807 807 806 804 803 802 801 800 799 797 796 795 794 793 792 791 790 789 788 787 786 786 786 786 786 786 786 786 786 786 786 786 786 787 788 788 789 789 790 791 793 794 796 799 800 802 804 805 807 808 811
815 816 817 817 818 818 818 819 818 818 818 818 817 817 816 815 814 813 813 812 811 810 808 806 805 804 802 801 800 799 798 797 795 794 793 792 791 790 789 788 787 786 785 784 783 782 782 782 782 782 782 782 782 782 782 783 783 784 785 785 786 786 787 788 790 792 794 796 797 799 800 803 805 806
815 815 816 816 816 817 817 817 817 817 817 817 816 816 815 814 813 812 811 810 809 808 806 804 803 801 800 799 797 796 796 795 793 792 791 789 788 788 787 785 785 784 783 782 781 780 779 778 778 778 778 778 779 779 779 779 779 780 780 781 782 782 783 785 786 788 789 791 793 794 796 799 800 801
814 814 815 815 815 816 815 815 816 816 816 815 815 814 814 813 812 811 810 809 807 806 804 802 800 799 798 797 795 794 794 792 791 790 789 787 786 785 784 783 783 782 781 780 778 777 776 775 774 774 774 774 774 775 775 775 775 776 776 777 778 779 779 781 782 783 785 786 788 790 792 795 797 798
813 814 814 814 814 814 814 814 814 814 814 813 813 813 813 812 811 810 809 807 806 804 802 800 799 797 795 794 793 792 791 790 789 788 788 786 785 784 783 781 781 780 779 777 776 775 774 773 772 771 770 769 770 771 771 771 771 772 773 774 774 775 776 777 778 779 780 782 784 786 788 791 793 795
812 812 813 813 812 812 811 811 811 811 811 810 810 810 810 811 810 809 808 806 805 803 801 799 798 796 794 793 792 791 790 789 788 788 787 785 784 783 781 779 778 778 777 775 773 772 772 771 769 768 767 766 766 766 766 767 767 768 769 770 771 772 772 773 774 775 776 777 779 781 784 786 789 790
811 811 811 811 811 810 810 809 808 808 808 807 807 807 807 808 808 807 806 805 804 803 800 798 797 795 793 792 791 790 789 788 787 786 786 784 783 782 780 777 776 776 775 773 771 769 769 769 767 766 765 764 763 762 761 762 764 765 766 767 768 769 769 770 771 771 772 773 775 777 779 781 784 786
809 809 810 810 810 809 808 807 806 806 805 804 804 804 804 804 804 804 804 803 802 801 800 798 796 795 793 791 790 790 789 787 786 785 784 783 782 781 779 777 775 775 775 773 770 768 767 767 765 763 763 762 761 760 759 758 760 761 762 764 765 765 766 766 767 768 768 769 770 772 774 776 778 781
808 808 808 808 808 807 806 805 805 804 803 802 802 801 801 801 800 800 800 800 799 799 798 796 795 794 793 791 790 790 789 788 786 785 784 783 781 780 778 776 775 775 775 773 770 767 765 765 763 761 760 760 759 759 757 756 757 757 758 760 761 762 762 762 763 763 764 765 766 768 770 771 774 776
806 806 807 806 806 805 804 804 803 802 802 802 801 800 799 798 798 797 796 796 795 795 795 794 792 792 792 790 789 789 789 788 787 785 783 782 781 779 777 775 774 773 773 773 770 765 763 764 762 758 758 758 757 756 755 753 754 754 755 756 757 758 759 759 759 760 760 761 762 763 765 767 769 772
805 805 805 804 804 803 803 802 801 800 801 800 799 799 798 797 796 795 794 793 792 792 791 790 789 789 790 789 788 787 787 786 785 784 783 782 781 778 776 773 772 771 771 772 770 764 761 763 760 756 756 756 754 753 752 749 750 751 751 752 754 755 755 755 756 756 757 757 758 759 761 763 765 768
803 803 803 802 802 802 801 800 798 798 799 798 798 797 796 795 794 793 792 791 790 790 788 787 787 786 786 785 784 784 785 784 783 783 781 780 780 778 774 771 769 768 767 768 767 762 759 760 758 754 754 753 751 750 748 746 746 747 747 749 751 751 752 753 753 754 754 754 755 755 757 760 762 765
802 801 801 800 800 799 799 798 796 796 797 796 796 795 793 793 791 790 789 788 787 787 785 784 784 782 782 782 781 781 781 781 782 782 779 778 779 777 772 768 767 765 764 763 764 760 756 757 756 753 751 751 748 748 746 743 743 744 744 746 748 748 749 750 751 752 752 752 752 753 754 757 759 762
800 799 798 798 798 797 797 796 794 794 794 794 794 793 791 790 788 787 787 786 784 784 782 781 780 779 779 778 777 777 777 778 779 778 775 776 778 774 770 767 765 762 761 761 761 758 754 754 754 750 749 747 745 745 745 741 741 742 743 743 745 746 747 747 748 749 750 750 750 751 752 754 756 758
798 797 796 795 794 794 794 794 793 792 792 792 792 791 789 787 786 785 785 784 782 781 779 778 777 776 775 775 774 773 773 773 774 773 772 773 774 770 767 767 764 760 757 758 759 756 752 751 750 748 746 743 740 742 742 739 739 740 741 742 742 743 744 745 746 747 747 747 748 749 749 751 753 756
796 796 795 793 791 791 792 792 791 791 790 790 789 789 787 785 784 784 783 782 781 779 778 776 775 774 773 772 771 770 770 769 769 769 768 769 769 766 764 764 762 757 754 756 757 754 751 749 747 745 744 741 738 738 739 737 737 739 740 740 740 740 741 743 744 745 745 745 746 746 747 749 751 753
795 794 793 791 789 789 790 790 789 788 788 787 786 785 785 783 783 782 781 780 779 777 776 774 773 771 770 769 768 767 766 766 765 764 764 764 764 763 761 760 758 754 753 756 756 753 750 749 746 744 743 739 737 737 737 735 735 736 737 738 738 738 740 741 743 743 744 744 744 745 746 748 750 752
793 792 792 790 788 788 788 787 787 786 785 784 783 782 781 781 780 780 779 777 776 775 773 771 770 768 767 766 765 763 762 761 761 760 760 759 759 759 759 758 756 753 752 754 756 753 750 748 746 744 742 738 736 734 734 734 735 735 735 736 737 738 739 741 742 743 743 743 744 745 746 748 750 752
792 790 790 789 787 786 786 785 784 783 782 781 780 779 778 778 777 776 776 774 773 771 770 769 767 765 764 763 761 760 758 758 757 757 756 756 755 755 755 754 753 752 752 753 754 752 750 747 746 745 742 739 736 733 732 733 734 734 735 735 736 738 738 739 741 743 743 743 744 745 747 749 751 753
790 789 788 787 786 785 784 783 781 780 779 778 777 776 775 775 774 773 772 771 769 768 767 765 764 762 761 760 758 756 756 755 754 753 753 752 752 752 751 750 750 749 750 750 751 750 748 746 745 744 742 740 738 735 733 734 734 734 735 736 737 738 737 737 739 742 743 744 744 745 746 748 750 753
789 787 786 785 784 783 782 780 779 778 777 775 774 773 772 771 771 770 769 767 766 765 763 762 760 759 758 757 755 754 754 753 752 751 750 749 749 749 748 747 746 746 746 746 747 747 746 744 743 743 742 740 738 736 734 734 734 735 734 734 736 737 737 737 737 740 743 745 746 747 747 748 750 752
787 786 784 783 782 780 779 778 777 776 775 773 772 771 770 769 768 767 766 764 763 761 760 758 757 755 755 754 753 752 751 750 749 749 748 747 746 746 745 744 743 742 742 742 743 743 742 742 741 741 740 739 738 736 735 734 734 734 734 734 734 736 738 738 738 739 743 745 747 748 750 751 752 753
785 783 782 781 780 778 777 776 775 774 772 771 770 769 768 767 765 764 763 761 760 758 757 755 754 753 752 751 750 749 748 747 746 746 745 744 743 743 742 741 739 739 739 739 739 739 739 738 738 738 737 736 736 735 734 734 733 732 732 733 733 734 736 738 739 740 742 746 748 749 751 752 754 756
783 782 780 779 778 776 775 775 774 772 771 770 769 768 766 765 763 762 760 759 757 755 754 752 751 750 749 748 747 746 745 744 743 743 742 741 740 740 740 738 736 736 736 736 735 735 735 735 735 734 734 734 734 734 733 732 731 730 730 732 733 734 735 737 738 740 742 745 748 749 751 753 755 757
782 781 780 778 776 775 774 773 772 771 770 769 768 767 765 763 762 760 758 757 755 753 752 750 749 748 746 745 744 744 742 741 741 740 740 739 738 738 737 735 734 734 734 733 732 732 732 731 731 731 731 731 731 732 732 730 729 729 729 730 732 734 735 736 737 739 741 744 746 749 752 754 756 758
782 781 779 777 775 774 773 773 772 771 770 768 767 765 764 762 760 758 757 755 753 752 750 748 747 746 744 742 741 741 739 738 737 737 737 736 735 734 733 732 731 731 731 730 729 729 729 729 729 729 729 729 729 729 729 729 729 729 728 728 730 733 734 735 737 738 740 743 745 748 751 754 757 759
781 780 778 776 775 774 773 772 771 770 769 768 766 764 762 761 759 757 755 753 751 750 748 746 745 743 741 739 738 737 736 734 734 733 733 733 732 731 730 729 727 727 728 727 727 727 727 727 727 726 726 726 726 726 726 727 728 729 728 729 730 732 734 735 736 737 740 742 744 746 750 753 756 758
780 778 777 775 775 774 773 772 771 770 768 767 765 763 761 759 757 755 753 751 750 748 745 744 742 740 738 736 735 733 732 731 730 729 728 728 727 726 726 725 724 724 724 724 724 725 725 725 725 724 723 723 724 723 722 723 725 726 727 729 730 731 733 735 736 737 739 741 743 745 748 751 754 757
779 778 777 776 776 775 773 772 771 769 768 766 764 762 760 757 755 753 751 749 747 745 743 741 738 736 735 733 731 729 728 727 725 724 723 723 722 722 721 720 720 720 720 720 721 722 723 723 722 722 721 721 721 721 720 721 722 723 725 727 729 731 733 734 736 737 739 742 744 745 747 750 754 757
779 778 778 777 776 774 773 771 770 768 766 765 763 760 758 755 753 751 748 746 744 742 739 737 735 733 731 729 727 725 723 722 721 719 718 718 717 717 716 715 715 716 716 716 718 719 719 720 720 719 719 719 719 719 719 719 720 721 722 724 726 729 732 734 735 736 739 742 745 747 749 751 753 757
779 779 778 776 775 774 772 771 769 767 765 763 761 758 756 753 750 748 746 743 741 738 736 734 731 729 727 725 723 721 719 718 716 715 714 713 712 712 711 711 711 712 712 713 713 714 715 716 715 716 717 717 717 717 717 717 718 719 721 722 724 726 730 734 735 736 738 741 744 747 750 752 755 758
780 779 778 776 775 773 772 770 769 766 764 762 759 757 754 751 748 746 743 740 738 735 732 730 727 725 722 720 718 716 714 712 711 710 709 708 708 707 707 707 707 708 709 709 709 710 710 710 711 713 715 716 717 717 716 716 717 719 720 722 723 724 727 730 733 734 737 740 742 745 748 752 755 759
779 778 777 776 775 773 771 770 768 765 763 760 758 755 752 749 746 743 740 737 735 732 729 726 723 721 718 716 714 712 710 707 706 705 704 703 702 702 703 703 704 705 705 705 705 705 705 706 708 711 714 715 716 716 717 717 719 720 721 723 725 725 727 729 730 730 733 738 741 745 749 753 756 760
779 778 777 776 774 773 771 769 767 764 761 759 756 753 750 747 744 741 737 734 732 729 726 723 720 717 715 712 710 708 706 703 701 700 699 698 698 698 699 700 701 701 702 702 702 702 703 704 706 708 711 712 713 715 716 717 719 720 721 723 725 727 729 731 732 732 734 737 739 742 746 751 756 760
779 778 776 775 774 772 770 768 766 763 760 757 754 751 748 745 741 738 735 732 729 726 722 719 716 714 711 709 706 704 702 699 697 696 695 695 695 695 696 697 697 699 699 700 700 701 701 702 703 705 708 710 711 713 715 717 719 720 722 723 726 727 730 732 734 735 738 740 741 741 742 745 748 753
778 777 776 774 773 771 769 767 765 762 759 756 753 750 746 743 739 736 733 729 726 723 720 716 713 711 708 705 703 701 698 696 694 693 693 693 693 693 694 694 695 696 697 698 699 699 699 699 701 703 705 707 709 711 713 716 719 721 722 723 725 727 729 732 735 737 741 744 746 746 747 748 748 751
778 777 775 774 772 770 768 766 764 761 758 755 751 748 745 741 738 734 730 727 723 720 717 713 710 707 705 702 700 697 695 693 692 691 691 691 691 691 692 693 694 694 695 696 697 697 698 698 700 701 703 705 708 710 712 714 717 720 722 724 726 728 731 733 735 738 743 748 750 750 751 753 756 759